WZZ29B EKBI-EPKT

Flight info

Callsign WZZ29B
Flight time 1h 22m
Altitude 39000
Route RIDSI DCT KOSEB DCT BINKA DCT NUDRO DCT MOFKE
Aircraft A20N/M-SDE2E3FGHIRWXY/LB1

Departure

Time 2026-04-30 19:38
Airport Billund Airport (EKBI)

Arrival

Time 2026-04-30 21:01
Airport Katowice Wojciech Korfanty International Airport (EPKT)
Time Latitude Longitude Altitude Speed Heading
2026-04-30 19:19 55.74535 9.14813 241 ft 0 kts 356°
2026-04-30 19:29 55.74532 9.14813 241 ft 1 kts 356°
2026-04-30 19:30 55.74491 9.14815 241 ft 3 kts 358°
2026-04-30 19:30 55.74451 9.14808 241 ft 3 kts 54°
2026-04-30 19:31 55.74447 9.14794 241 ft 0 kts 86°
2026-04-30 19:32 55.74447 9.14795 241 ft 0 kts 86°
2026-04-30 19:32 55.74449 9.14839 241 ft 8 kts 86°
2026-04-30 19:33 55.74433 9.14969 241 ft 11 kts 152°
2026-04-30 19:33 55.74329 9.14987 241 ft 19 kts 175°
2026-04-30 19:33 55.74202 9.15031 241 ft 17 kts 124°
2026-04-30 19:33 55.74204 9.15258 241 ft 20 kts 86°
2026-04-30 19:34 55.74215 9.15516 241 ft 22 kts 87°
2026-04-30 19:34 55.74217 9.15807 241 ft 25 kts 90°
2026-04-30 19:34 55.74241 9.16453 241 ft 28 kts 86°
2026-04-30 19:35 55.74251 9.16811 241 ft 30 kts 87°
2026-04-30 19:35 55.74262 9.17187 241 ft 31 kts 85°
2026-04-30 19:35 55.74275 9.17576 241 ft 32 kts 87°
2026-04-30 19:35 55.74289 9.17963 241 ft 29 kts 85°
2026-04-30 19:36 55.74229 9.18138 241 ft 0 kts 165°
2026-04-30 19:37 55.74213 9.18143 241 ft 8 kts 172°
2026-04-30 19:37 55.74126 9.18079 241 ft 21 kts 255°
2026-04-30 19:38 55.74107 9.17551 242 ft 76 kts 266°
2026-04-30 19:38 55.74067 9.16268 244 ft 131 kts 267°
2026-04-30 19:38 55.74021 9.14456 453 ft 157 kts 269°
2026-04-30 19:38 55.73997 9.12443 976 ft 167 kts 269°
2026-04-30 19:39 55.73974 9.10318 1550 ft 174 kts 270°
2026-04-30 19:39 55.74282 9.08303 2216 ft 175 kts 304°
2026-04-30 19:39 55.75295 9.07002 2542 ft 196 kts 343°
2026-04-30 19:39 55.76711 9.07065 2820 ft 217 kts 19°
2026-04-30 19:40 55.77982 9.08689 3063 ft 238 kts 53°
2026-04-30 19:40 55.78851 9.11323 3353 ft 259 kts 63°
2026-04-30 19:40 55.79762 9.14164 3950 ft 265 kts 58°
2026-04-30 19:40 55.80848 9.16823 4810 ft 265 kts 52°
2026-04-30 19:41 55.82057 9.19285 5708 ft 268 kts 48°
2026-04-30 19:41 55.83368 9.21691 6672 ft 271 kts 46°
2026-04-30 19:41 55.84706 9.24036 7643 ft 274 kts 46°
2026-04-30 19:41 55.85902 9.26709 8609 ft 277 kts 65°
2026-04-30 19:42 55.86359 9.29988 9559 ft 280 kts 90°
2026-04-30 19:42 55.85948 9.33403 10445 ft 288 kts 115°
2026-04-30 19:42 55.84847 9.36520 10858 ft 312 kts 125°
2026-04-30 19:42 55.83515 9.39762 11264 ft 332 kts 126°
2026-04-30 19:43 55.82116 9.43111 11785 ft 337 kts 126°
2026-04-30 19:43 55.80739 9.46441 11958 ft 338 kts 126°
2026-04-30 19:43 55.79351 9.49840 11993 ft 338 kts 125°
2026-04-30 19:44 55.76615 9.56599 11996 ft 338 kts 125°
2026-04-30 19:44 55.75236 9.60012 12120 ft 341 kts 125°
2026-04-30 19:44 55.73843 9.63455 12880 ft 342 kts 125°
2026-04-30 19:44 55.72448 9.66892 13864 ft 344 kts 124°
2026-04-30 19:45 55.71053 9.70322 14675 ft 348 kts 124°
2026-04-30 19:45 55.69614 9.73860 15382 ft 355 kts 124°
2026-04-30 19:45 55.68153 9.77445 16095 ft 360 kts 124°
2026-04-30 19:45 55.66689 9.81031 16792 ft 366 kts 124°
2026-04-30 19:46 55.65179 9.84727 17499 ft 371 kts 124°
2026-04-30 19:46 55.63664 9.88426 18191 ft 376 kts 124°
2026-04-30 19:46 55.62103 9.92231 18864 ft 382 kts 124°
2026-04-30 19:46 55.60547 9.96018 19493 ft 385 kts 124°
2026-04-30 19:47 55.59015 9.99942 20139 ft 388 kts 118°
2026-04-30 19:47 55.58150 10.02721 20555 ft 389 kts 115°
2026-04-30 19:47 55.56467 10.08456 21413 ft 394 kts 115°
2026-04-30 19:47 55.55209 10.12727 22024 ft 398 kts 115°
2026-04-30 19:48 55.53915 10.17103 22639 ft 402 kts 115°
2026-04-30 19:48 55.52624 10.21454 23243 ft 406 kts 115°
2026-04-30 19:48 55.51732 10.24454 23658 ft 408 kts 115°
2026-04-30 19:48 55.50412 10.28879 24213 ft 412 kts 115°
2026-04-30 19:49 55.48626 10.34854 24857 ft 417 kts 115°
2026-04-30 19:49 55.46346 10.42456 25665 ft 423 kts 115°
2026-04-30 19:49 55.44962 10.47060 26133 ft 427 kts 115°
2026-04-30 19:50 55.43556 10.51728 26594 ft 430 kts 115°
2026-04-30 19:50 55.42162 10.56347 27029 ft 434 kts 115°
2026-04-30 19:50 55.40734 10.61070 27486 ft 437 kts 115°
2026-04-30 19:50 55.39294 10.65824 27900 ft 441 kts 115°
2026-04-30 19:51 55.37850 10.70579 28329 ft 444 kts 115°
2026-04-30 19:51 55.36400 10.75343 28728 ft 447 kts 115°
2026-04-30 19:51 55.34925 10.80183 29122 ft 450 kts 115°
2026-04-30 19:51 55.33433 10.85066 29509 ft 453 kts 115°
2026-04-30 19:52 55.31927 10.89987 29880 ft 456 kts 115°
2026-04-30 19:52 55.30434 10.94853 30252 ft 459 kts 115°
2026-04-30 19:52 55.28905 10.99829 30592 ft 462 kts 115°
2026-04-30 19:52 55.27371 11.04808 30930 ft 464 kts 116°
2026-04-30 19:53 55.25849 11.09740 31274 ft 466 kts 116°
2026-04-30 19:53 55.24302 11.14741 31636 ft 467 kts 116°
2026-04-30 19:53 55.22743 11.19771 32077 ft 466 kts 116°
2026-04-30 19:53 55.21210 11.24707 32562 ft 465 kts 116°
2026-04-30 19:54 55.19659 11.29688 32999 ft 464 kts 116°
2026-04-30 19:54 55.18108 11.34664 33459 ft 462 kts 116°
2026-04-30 19:54 55.16563 11.39606 33908 ft 461 kts 116°
2026-04-30 19:54 55.15037 11.44481 34325 ft 459 kts 117°
2026-04-30 19:55 55.13515 11.49331 34702 ft 458 kts 117°
2026-04-30 19:55 55.11978 11.54220 35053 ft 457 kts 117°
2026-04-30 19:55 55.10454 11.59053 35361 ft 456 kts 117°
2026-04-30 19:55 55.08923 11.63903 35680 ft 455 kts 117°
2026-04-30 19:56 55.07384 11.68763 35992 ft 455 kts 117°
2026-04-30 19:56 55.05848 11.73607 36297 ft 454 kts 117°
2026-04-30 19:56 55.04337 11.78365 36584 ft 454 kts 117°
2026-04-30 19:56 55.02802 11.83186 36866 ft 453 kts 117°
2026-04-30 19:57 55.01264 11.88006 37136 ft 452 kts 117°
2026-04-30 19:57 54.99732 11.92798 37406 ft 452 kts 117°
2026-04-30 19:57 54.98206 11.97563 37666 ft 451 kts 117°
2026-04-30 19:57 54.96688 12.02293 37916 ft 451 kts 117°
2026-04-30 19:58 54.95147 12.07085 38155 ft 451 kts 117°
2026-04-30 19:58 54.93614 12.11842 38389 ft 450 kts 117°
2026-04-30 19:58 54.92072 12.16620 38614 ft 450 kts 117°
2026-04-30 19:58 54.90549 12.21327 38828 ft 450 kts 117°
2026-04-30 19:59 54.89012 12.26069 39036 ft 450 kts 117°
2026-04-30 19:59 54.87471 12.30816 39217 ft 449 kts 117°
2026-04-30 19:59 54.84406 12.40227 39415 ft 450 kts 117°
2026-04-30 20:00 54.82877 12.44907 39416 ft 449 kts 117°
2026-04-30 20:00 54.79728 12.54322 39420 ft 450 kts 120°
2026-04-30 20:01 54.73809 12.66971 39415 ft 454 kts 134°
2026-04-30 20:01 54.69293 12.74562 39423 ft 454 kts 133°
2026-04-30 20:02 54.62518 12.86013 39423 ft 454 kts 133°
2026-04-30 20:03 54.55751 12.97395 39417 ft 454 kts 133°
2026-04-30 20:03 54.51231 13.04966 39425 ft 454 kts 133°
2026-04-30 20:04 54.46705 13.12522 39421 ft 454 kts 133°
2026-04-30 20:05 54.39884 13.23861 39425 ft 454 kts 133°
2026-04-30 20:05 54.33068 13.35139 39424 ft 455 kts 133°
2026-04-30 20:06 54.28516 13.42641 39420 ft 455 kts 133°
2026-04-30 20:06 54.23933 13.50169 39419 ft 455 kts 133°
2026-04-30 20:07 54.19389 13.57608 39422 ft 455 kts 133°
2026-04-30 20:08 54.12531 13.68791 39420 ft 455 kts 133°
2026-04-30 20:08 54.07914 13.76290 39423 ft 455 kts 133°
2026-04-30 20:09 54.03321 13.83726 39428 ft 456 kts 133°
2026-04-30 20:09 53.96437 13.94827 39428 ft 456 kts 133°
2026-04-30 20:10 53.89534 14.05905 39426 ft 456 kts 133°
2026-04-30 20:11 53.82592 14.16992 39425 ft 457 kts 133°
2026-04-30 20:11 53.77968 14.24349 39430 ft 457 kts 133°
2026-04-30 20:12 53.70488 14.34466 39421 ft 461 kts 139°
2026-04-30 20:13 53.65363 14.40902 39420 ft 461 kts 139°
2026-04-30 20:13 53.60252 14.47398 39421 ft 461 kts 138°
2026-04-30 20:14 53.55151 14.53934 39421 ft 461 kts 138°
2026-04-30 20:14 53.50031 14.60478 39424 ft 461 kts 138°
2026-04-30 20:15 53.44940 14.66959 39428 ft 461 kts 138°
2026-04-30 20:15 53.39798 14.73476 39427 ft 461 kts 138°
2026-04-30 20:16 53.34689 14.79929 39428 ft 461 kts 138°
2026-04-30 20:16 53.29574 14.86369 39425 ft 461 kts 138°
2026-04-30 20:17 53.24461 14.92788 39421 ft 461 kts 138°
2026-04-30 20:17 53.19301 14.99245 39421 ft 461 kts 138°
2026-04-30 20:18 53.14182 15.05633 39420 ft 461 kts 137°
2026-04-30 20:18 53.09072 15.11990 39421 ft 461 kts 137°
2026-04-30 20:19 53.03911 15.18389 39416 ft 461 kts 137°
2026-04-30 20:19 52.98755 15.24763 39424 ft 460 kts 137°
2026-04-30 20:20 52.93643 15.31065 39416 ft 460 kts 137°
2026-04-30 20:20 52.88479 15.37410 39411 ft 460 kts 137°
2026-04-30 20:21 52.83349 15.43695 39416 ft 460 kts 137°
2026-04-30 20:21 52.78217 15.49963 39410 ft 460 kts 137°
2026-04-30 20:22 52.73040 15.56268 39411 ft 460 kts 137°
2026-04-30 20:22 52.67893 15.62518 39409 ft 460 kts 137°
2026-04-30 20:23 52.62751 15.68742 39406 ft 460 kts 137°
2026-04-30 20:23 52.57613 15.74944 39405 ft 460 kts 137°
2026-04-30 20:24 52.52423 15.81189 39404 ft 460 kts 137°
2026-04-30 20:24 52.47267 15.87375 39406 ft 460 kts 137°
2026-04-30 20:25 52.39508 15.96650 39406 ft 460 kts 137°
2026-04-30 20:26 52.31767 16.05862 39400 ft 460 kts 137°
2026-04-30 20:26 52.23995 16.15070 39411 ft 460 kts 137°
2026-04-30 20:27 52.13620 16.27299 39400 ft 459 kts 137°
2026-04-30 20:28 52.03271 16.39426 39398 ft 459 kts 137°
2026-04-30 20:30 51.90290 16.54538 39397 ft 459 kts 137°
2026-04-30 20:31 51.74758 16.72475 39396 ft 458 kts 138°
2026-04-30 20:32 51.66960 16.81418 38950 ft 455 kts 137°
2026-04-30 20:32 51.61808 16.87306 37603 ft 454 kts 137°
2026-04-30 20:33 51.59208 16.90272 36862 ft 455 kts 136°
2026-04-30 20:33 51.54091 16.96096 35462 ft 457 kts 136°
2026-04-30 20:33 51.51453 16.99089 34764 ft 457 kts 135°
2026-04-30 20:34 51.47121 17.03994 33496 ft 458 kts 135°
2026-04-30 20:34 51.41883 17.09918 31870 ft 460 kts 135°
2026-04-30 20:35 51.39300 17.12834 31074 ft 461 kts 135°
2026-04-30 20:35 51.36655 17.15812 30353 ft 459 kts 135°
2026-04-30 20:35 51.32083 17.22359 29008 ft 425 kts 116°
2026-04-30 20:36 51.30568 17.26329 28304 ft 410 kts 108°
2026-04-30 20:36 51.29242 17.30306 27644 ft 407 kts 108°
2026-04-30 20:36 51.26586 17.38232 26352 ft 401 kts 109°
2026-04-30 20:37 51.25260 17.42171 25715 ft 399 kts 109°
2026-04-30 20:37 51.23965 17.46008 25106 ft 396 kts 109°
2026-04-30 20:37 51.22659 17.49871 24502 ft 394 kts 109°
2026-04-30 20:37 51.21355 17.53718 23901 ft 392 kts 109°
2026-04-30 20:38 51.20076 17.57488 23253 ft 388 kts 109°
2026-04-30 20:38 51.18786 17.61282 22609 ft 385 kts 110°
2026-04-30 20:38 51.17509 17.65033 21985 ft 382 kts 110°
2026-04-30 20:39 51.15008 17.72360 21422 ft 378 kts 110°
2026-04-30 20:39 51.13742 17.76072 21401 ft 380 kts 110°
2026-04-30 20:39 51.12489 17.79731 21402 ft 380 kts 110°
2026-04-30 20:40 51.09943 17.87138 21403 ft 380 kts 110°
2026-04-30 20:40 51.08670 17.90834 21400 ft 380 kts 110°
2026-04-30 20:40 51.07414 17.94475 21397 ft 380 kts 110°
2026-04-30 20:41 51.04862 18.01858 21405 ft 380 kts 110°
2026-04-30 20:41 51.03597 18.05508 21313 ft 378 kts 110°
2026-04-30 20:41 51.02337 18.09139 20933 ft 376 kts 111°
2026-04-30 20:41 51.01067 18.12795 20397 ft 374 kts 111°
2026-04-30 20:42 50.99813 18.16402 19815 ft 372 kts 111°
2026-04-30 20:42 50.98569 18.19975 19242 ft 370 kts 112°
2026-04-30 20:42 50.96089 18.27080 18049 ft 364 kts 112°
2026-04-30 20:43 50.94877 18.30540 17468 ft 361 kts 112°
2026-04-30 20:43 50.93653 18.34032 16883 ft 359 kts 112°
2026-04-30 20:43 50.92442 18.37484 16299 ft 356 kts 112°
2026-04-30 20:44 50.90059 18.44267 15201 ft 351 kts 113°
2026-04-30 20:44 50.88865 18.47657 14655 ft 349 kts 113°
2026-04-30 20:44 50.86528 18.54281 13551 ft 344 kts 114°
2026-04-30 20:45 50.84193 18.60882 12404 ft 340 kts 114°
2026-04-30 20:45 50.83050 18.64113 11860 ft 338 kts 114°
2026-04-30 20:45 50.81902 18.67348 11315 ft 336 kts 114°
2026-04-30 20:46 50.78540 18.76783 10406 ft 310 kts 115°
2026-04-30 20:46 50.77515 18.79640 10393 ft 293 kts 115°
2026-04-30 20:47 50.75543 18.85166 10405 ft 289 kts 114°
2026-04-30 20:47 50.74552 18.87945 10392 ft 288 kts 114°
2026-04-30 20:48 50.72584 18.93443 10396 ft 288 kts 115°
2026-04-30 20:48 50.71601 18.96182 10396 ft 288 kts 115°
2026-04-30 20:48 50.70606 18.98950 10398 ft 288 kts 115°
2026-04-30 20:48 50.69612 19.01710 10400 ft 288 kts 115°
2026-04-30 20:49 50.68635 19.04420 10399 ft 288 kts 115°
2026-04-30 20:49 50.67639 19.07179 10398 ft 288 kts 115°
2026-04-30 20:49 50.66646 19.09926 10311 ft 286 kts 115°
2026-04-30 20:50 50.64685 19.15349 9587 ft 284 kts 115°
2026-04-30 20:50 50.63702 19.18061 9166 ft 283 kts 115°
2026-04-30 20:50 50.62745 19.20698 8933 ft 275 kts 115°
2026-04-30 20:50 50.61809 19.23264 8814 ft 263 kts 115°
2026-04-30 20:51 50.60917 19.25710 8713 ft 251 kts 115°
2026-04-30 20:51 50.59215 19.30396 8157 ft 245 kts 115°
2026-04-30 20:51 50.58373 19.32719 7845 ft 244 kts 115°
2026-04-30 20:52 50.57531 19.35033 7536 ft 243 kts 115°
2026-04-30 20:52 50.56703 19.37341 7181 ft 241 kts 114°
2026-04-30 20:52 50.55113 19.41951 6414 ft 239 kts 114°
2026-04-30 20:53 50.54225 19.44172 6010 ft 240 kts 124°
2026-04-30 20:53 50.53253 19.46258 5663 ft 237 kts 120°
2026-04-30 20:53 50.52398 19.48461 5313 ft 234 kts 115°
2026-04-30 20:54 50.51010 19.53027 4499 ft 237 kts 121°
2026-04-30 20:54 50.49746 19.54751 4110 ft 247 kts 155°
2026-04-30 20:54 50.48052 19.55201 4006 ft 253 kts 187°
2026-04-30 20:55 50.45331 19.52184 3996 ft 244 kts 249°
2026-04-30 20:55 50.45080 19.49668 3997 ft 230 kts 281°
2026-04-30 20:55 50.45522 19.47280 3982 ft 227 kts 292°
2026-04-30 20:56 50.46563 19.42617 3993 ft 227 kts 292°
2026-04-30 20:56 50.47077 19.40271 3994 ft 227 kts 292°
2026-04-30 20:56 50.47553 19.35354 3995 ft 232 kts 272°
2026-04-30 20:57 50.47545 19.32848 3997 ft 231 kts 273°
2026-04-30 20:57 50.47550 19.30345 3720 ft 223 kts 273°
2026-04-30 20:57 50.47556 19.27975 3367 ft 209 kts 273°
2026-04-30 20:58 50.47564 19.23817 2857 ft 171 kts 274°
2026-04-30 20:58 50.47567 19.22065 2618 ft 151 kts 274°
2026-04-30 20:58 50.47572 19.20483 2422 ft 147 kts 274°
2026-04-30 20:58 50.47576 19.18887 2213 ft 145 kts 274°
2026-04-30 20:59 50.47583 19.15748 1790 ft 142 kts 272°
2026-04-30 20:59 50.47586 19.14188 1586 ft 142 kts 271°
2026-04-30 21:00 50.47595 19.11122 1190 ft 141 kts 270°
2026-04-30 21:00 50.47605 19.08356 996 ft 72 kts 269°
2026-04-30 21:01 50.47595 19.07260 1002 ft 38 kts 260°
2026-04-30 21:01 50.47523 19.06949 1000 ft 0 kts 240°
2026-04-30 21:03 50.47523 19.06948 998 ft 1 kts 240°
2026-04-30 21:03 50.47503 19.06893 998 ft 11 kts 240°
2026-04-30 21:03 50.47447 19.06739 998 ft 20 kts 240°
2026-04-30 21:03 50.47333 19.06625 998 ft 21 kts 179°
2026-04-30 21:04 50.47238 19.06732 998 ft 19 kts 99°
2026-04-30 21:04 50.47236 19.06947 998 ft 20 kts 90°
2026-04-30 21:04 50.47215 19.07293 998 ft 1 kts 185°
2026-04-30 21:05 50.47192 19.07281 1000 ft 7 kts 189°